Time,TemperatureF,DewpointF,PressureIn,WindDirection,WindDirectionDegrees,WindSpeedMPH,WindSpeedGustMPH,Humidity,HourlyPrecipIn,Conditions,Clouds,dailyrainin,SoftwareType,DateUTC
2013-04-23 00:03:00,52.0,-99.9,30.16,North,358,15.0,20.0,-999,-99.99,,,-99.99,,2013-04-23 04:03:00,
2013-04-23 00:13:00,52.0,-99.9,30.16,North,4,17.0,22.0,-999,-99.99,,,-99.99,,2013-04-23 04:13:00,
2013-04-23 00:23:00,52.0,-99.9,30.15,North,-999,18.0,24.0,-999,-99.99,,,-99.99,,2013-04-23 04:23:00,
2013-04-23 00:33:00,52.0,-99.9,30.15,North,5,20.0,25.0,-999,-99.99,,,-99.99,,2013-04-23 04:33:00,
2013-04-23 00:44:00,52.0,-99.9,30.15,North,5,17.0,22.0,-999,-99.99,,,-99.99,,2013-04-23 04:44:00,
2013-04-23 00:53:00,52.0,-99.9,30.15,North,4,18.0,24.0,-999,-99.99,,,-99.99,,2013-04-23 04:53:00,
2013-04-23 01:02:00,52.0,-99.9,30.15,North,5,17.0,22.0,-999,-99.99,,,-99.99,,2013-04-23 05:02:00,
2013-04-23 01:12:00,52.0,-99.9,30.14,North,4,15.0,20.0,-999,-99.99,,,-99.99,,2013-04-23 05:12:00,
2013-04-23 01:22:00,52.0,-99.9,30.14,North,-999,16.0,21.0,-999,-99.99,,,-99.99,,2013-04-23 05:22:00,
2013-04-23 01:33:00,52.0,-99.9,30.14,North,356,16.0,21.0,-999,-99.99,,,-99.99,,2013-04-23 05:33:00,
2013-04-23 01:43:00,52.0,-99.9,30.13,North,5,17.0,21.0,-999,-99.99,,,-99.99,,2013-04-23 05:43:00,
2013-04-23 01:52:00,52.0,-99.9,30.13,North,3,17.0,21.0,-999,-99.99,,,-99.99,,2013-04-23 05:52:00,
2013-04-23 02:02:00,52.0,-99.9,30.12,North,3,15.0,18.0,-999,-99.99,,,-99.99,,2013-04-23 06:02:00,
2013-04-23 02:12:00,52.0,-99.9,30.12,North,1,17.0,23.0,-999,-99.99,,,-99.99,,2013-04-23 06:12:00,
2013-04-23 02:22:00,52.0,-99.9,30.12,North,4,19.0,24.0,-999,-99.99,,,-99.99,,2013-04-23 06:22:00,
2013-04-23 02:33:00,52.0,-99.9,30.11,North,5,18.0,21.0,-999,-99.99,,,-99.99,,2013-04-23 06:33:00,
2013-04-23 02:42:00,52.0,-99.9,30.11,North,354,17.0,23.0,-999,-99.99,,,-99.99,,2013-04-23 06:42:00,
2013-04-23 02:52:00,52.0,-99.9,30.11,North,355,14.0,19.0,-999,-99.99,,,-99.99,,2013-04-23 06:52:00,
2013-04-23 03:02:00,52.0,-99.9,30.11,North,354,15.0,20.0,-999,-99.99,,,-99.99,,2013-04-23 07:02:00,
2013-04-23 03:11:00,52.0,-99.9,30.10,North,355,15.0,18.0,-999,-99.99,,,-99.99,,2013-04-23 07:11:00,
2013-04-23 03:22:00,52.0,-99.9,30.10,North,354,16.0,21.0,-999,-99.99,,,-99.99,,2013-04-23 07:22:00,
2013-04-23 03:32:00,51.0,-99.9,30.10,North,353,15.0,19.0,-999,-99.99,,,-99.99,,2013-04-23 07:32:00,
2013-04-23 03:42:00,51.0,-99.9,30.09,North,358,17.0,22.0,-999,-99.99,,,-99.99,,2013-04-23 07:42:00,
2013-04-23 03:52:00,51.0,-99.9,30.09,North,354,15.0,19.0,-999,-99.99,,,-99.99,,2013-04-23 07:52:00,
2013-04-23 04:02:00,51.0,-99.9,30.09,North,359,15.0,21.0,-999,-99.99,,,-99.99,,2013-04-23 08:02:00,
2013-04-23 04:11:00,51.0,-99.9,30.09,North,2,17.0,22.0,-999,-99.99,,,-99.99,,2013-04-23 08:11:00,
2013-04-23 04:22:00,51.0,-99.9,30.09,North,353,16.0,20.0,-999,-99.99,,,-99.99,,2013-04-23 08:22:00,
2013-04-23 04:32:00,51.0,-99.9,30.10,North,350,15.0,18.0,-999,-99.99,,,-99.99,,2013-04-23 08:32:00,
2013-04-23 04:42:00,51.0,-99.9,30.10,NNW,348,17.0,21.0,-999,-99.99,,,-99.99,,2013-04-23 08:42:00,
2013-04-23 04:52:00,51.0,-99.9,30.09,North,354,16.0,21.0,-999,-99.99,,,-99.99,,2013-04-23 08:52:00,
2013-04-23 05:02:00,51.0,-99.9,30.09,North,354,15.0,19.0,-999,-99.99,,,-99.99,,2013-04-23 09:02:00,
2013-04-23 05:11:00,51.0,-99.9,30.09,North,6,17.0,21.0,-999,-99.99,,,-99.99,,2013-04-23 09:11:00,
2013-04-23 05:22:00,51.0,-99.9,30.09,North,1,15.0,20.0,-999,-99.99,,,-99.99,,2013-04-23 09:22:00,
2013-04-23 05:33:00,51.0,-99.9,30.09,North,5,16.0,22.0,-999,-99.99,,,-99.99,,2013-04-23 09:33:00,
2013-04-23 05:43:00,51.0,-99.9,30.09,North,-999,15.0,18.0,-999,-99.99,,,-99.99,,2013-04-23 09:43:00,
2013-04-23 05:53:00,51.0,-99.9,30.09,North,360,14.0,19.0,-999,-99.99,,,-99.99,,2013-04-23 09:53:00,
2013-04-23 06:03:00,51.0,-99.9,30.10,North,356,17.0,22.0,-999,-99.99,,,-99.99,,2013-04-23 10:03:00,
2013-04-23 06:13:00,51.0,-99.9,30.10,North,351,14.0,20.0,-999,-99.99,,,-99.99,,2013-04-23 10:13:00,
2013-04-23 06:23:00,51.0,-99.9,30.10,North,357,16.0,19.0,-999,-99.99,,,-99.99,,2013-04-23 10:23:00,
2013-04-23 06:33:00,52.0,-99.9,30.11,North,1,12.0,16.0,-999,-99.99,,,-99.99,,2013-04-23 10:33:00,
2013-04-23 06:43:00,51.0,-99.9,30.11,North,350,14.0,19.0,-999,-99.99,,,-99.99,,2013-04-23 10:43:00,
2013-04-23 06:53:00,51.0,-99.9,30.11,North,350,14.0,20.0,-999,-99.99,,,-99.99,,2013-04-23 10:53:00,
2013-04-23 07:03:00,51.0,-99.9,30.11,NNW,345,14.0,18.0,-999,-99.99,,,-99.99,,2013-04-23 11:03:00,
2013-04-23 07:12:00,51.0,-99.9,30.12,NNW,347,16.0,19.0,-999,-99.99,,,-99.99,,2013-04-23 11:12:00,
2013-04-23 07:22:00,51.0,-99.9,30.12,North,359,15.0,19.0,-999,-99.99,,,-99.99,,2013-04-23 11:22:00,
2013-04-23 07:33:00,51.0,-99.9,30.12,North,350,15.0,20.0,-999,-99.99,,,-99.99,,2013-04-23 11:33:00,
2013-04-23 07:43:00,52.0,-99.9,30.12,North,360,16.0,20.0,-999,-99.99,,,-99.99,,2013-04-23 11:43:00,
2013-04-23 07:53:00,51.0,-99.9,30.12,North,353,17.0,21.0,-999,-99.99,,,-99.99,,2013-04-23 11:53:00,
2013-04-23 08:02:00,52.0,-99.9,30.12,North,357,13.0,18.0,-999,-99.99,,,-99.99,,2013-04-23 12:02:00,
2013-04-23 08:12:00,52.0,-99.9,30.13,North,359,13.0,18.0,-999,-99.99,,,-99.99,,2013-04-23 12:12:00,
2013-04-23 08:22:00,52.0,-99.9,30.13,North,3,14.0,17.0,-999,-99.99,,,-99.99,,2013-04-23 12:22:00,
2013-04-23 08:32:00,52.0,-99.9,30.14,North,352,16.0,20.0,-999,-99.99,,,-99.99,,2013-04-23 12:32:00,
2013-04-23 08:42:00,52.0,-99.9,30.14,NNW,346,15.0,20.0,-999,-99.99,,,-99.99,,2013-04-23 12:42:00,
2013-04-23 08:52:00,52.0,-99.9,30.14,North,355,16.0,21.0,-999,-99.99,,,-99.99,,2013-04-23 12:52:00,
2013-04-23 09:01:00,52.0,-99.9,30.14,North,355,14.0,18.0,-999,-99.99,,,-99.99,,2013-04-23 13:01:00,
2013-04-23 09:12:00,52.0,-99.9,30.14,North,353,16.0,23.0,-999,-99.99,,,-99.99,,2013-04-23 13:12:00,
2013-04-23 09:22:00,52.0,-99.9,30.15,North,351,17.0,22.0,-999,-99.99,,,-99.99,,2013-04-23 13:22:00,
2013-04-23 09:32:00,52.0,-99.9,30.15,North,349,16.0,20.0,-999,-99.99,,,-99.99,,2013-04-23 13:32:00,
2013-04-23 09:42:00,52.0,-99.9,30.15,North,352,15.0,21.0,-999,-99.99,,,-99.99,,2013-04-23 13:42:00,
2013-04-23 09:52:00,52.0,-99.9,30.15,North,350,15.0,20.0,-999,-99.99,,,-99.99,,2013-04-23 13:52:00,
2013-04-23 10:02:00,53.0,-99.9,30.15,North,350,13.0,19.0,-999,-99.99,,,-99.99,,2013-04-23 14:02:00,
2013-04-23 10:11:00,53.0,-99.9,30.16,NNW,345,17.0,22.0,-999,-99.99,,,-99.99,,2013-04-23 14:11:00,
2013-04-23 10:22:00,53.0,-99.9,30.16,North,354,18.0,22.0,-999,-99.99,,,-99.99,,2013-04-23 14:22:00,
2013-04-23 10:32:00,53.0,-99.9,30.16,North,356,15.0,19.0,-999,-99.99,,,-99.99,,2013-04-23 14:32:00,
2013-04-23 10:42:00,53.0,-99.9,30.16,NNW,343,14.0,18.0,-999,-99.99,,,-99.99,,2013-04-23 14:42:00,
2013-04-23 10:52:00,53.0,-99.9,30.16,North,2,13.0,18.0,-999,-99.99,,,-99.99,,2013-04-23 14:52:00,
2013-04-23 11:01:00,53.0,-99.9,30.16,North,2,13.0,18.0,-999,-99.99,,,-99.99,,2013-04-23 15:01:00,
2013-04-23 11:12:00,54.0,-99.9,30.16,North,353,12.0,16.0,-999,-99.99,,,-99.99,,2013-04-23 15:12:00,
2013-04-23 11:22:00,54.0,-99.9,30.16,North,7,14.0,18.0,-999,-99.99,,,-99.99,,2013-04-23 15:22:00,
2013-04-23 11:32:00,55.0,-99.9,30.17,North,6,15.0,20.0,-999,-99.99,,,-99.99,,2013-04-23 15:32:00,
2013-04-23 11:43:00,56.0,-99.9,30.17,North,1,13.0,15.0,-999,-99.99,,,-99.99,,2013-04-23 15:43:00,
2013-04-23 11:53:00,56.0,-99.9,30.17,North,358,13.0,17.0,-999,-99.99,,,-99.99,,2013-04-23 15:53:00,
2013-04-23 12:03:00,56.0,-99.9,30.17,North,5,16.0,19.0,-999,-99.99,,,-99.99,,2013-04-23 16:03:00,
2013-04-23 12:12:00,56.0,-99.9,30.18,North,8,15.0,20.0,-999,-99.99,,,-99.99,,2013-04-23 16:12:00,
2013-04-23 12:23:00,57.0,-99.9,30.17,North,-999,12.0,16.0,-999,-99.99,,,-99.99,,2013-04-23 16:23:00,
2013-04-23 12:34:00,57.0,-99.9,30.17,North,356,14.0,18.0,-999,-99.99,,,-99.99,,2013-04-23 16:34:00,
2013-04-23 12:43:00,57.0,-99.9,30.17,North,1,15.0,17.0,-999,-99.99,,,-99.99,,2013-04-23 16:43:00,
2013-04-23 12:53:00,58.0,-99.9,30.16,NNE,15,14.0,19.0,-999,-99.99,,,-99.99,,2013-04-23 16:53:00,
2013-04-23 13:03:00,58.0,-99.9,30.16,NNE,12,13.0,15.0,-999,-99.99,,,-99.99,,2013-04-23 17:03:00,
2013-04-23 13:12:00,58.0,-99.9,30.16,North,5,16.0,20.0,-999,-99.99,,,-99.99,,2013-04-23 17:12:00,
2013-04-23 13:22:00,58.0,-99.9,30.16,North,4,16.0,20.0,-999,-99.99,,,-99.99,,2013-04-23 17:22:00,
2013-04-23 13:33:00,59.0,-99.9,30.15,North,7,13.0,17.0,-999,-99.99,,,-99.99,,2013-04-23 17:33:00,
2013-04-23 13:43:00,59.0,-99.9,30.15,North,9,13.0,18.0,-999,-99.99,,,-99.99,,2013-04-23 17:43:00,
2013-04-23 13:53:00,59.0,-99.9,30.14,North,11,11.0,14.0,-999,-99.99,,,-99.99,,2013-04-23 17:53:00,
2013-04-23 14:02:00,60.0,-99.9,30.14,North,4,10.0,14.0,-999,-99.99,,,-99.99,,2013-04-23 18:02:00,
2013-04-23 14:12:00,60.0,-99.9,30.15,North,358,14.0,18.0,-999,-99.99,,,-99.99,,2013-04-23 18:12:00,
2013-04-23 14:22:00,60.0,-99.9,30.15,NNE,17,9.0,15.0,-999,-99.99,,,-99.99,,2013-04-23 18:22:00,
2013-04-23 14:32:00,61.0,-99.9,30.15,North,356,14.0,17.0,-999,-99.99,,,-99.99,,2013-04-23 18:32:00,
2013-04-23 14:42:00,61.0,-99.9,30.15,North,8,11.0,14.0,-999,-99.99,,,-99.99,,2013-04-23 18:42:00,
2013-04-23 14:52:00,62.0,-99.9,30.14,NNE,13,13.0,19.0,-999,-99.99,,,-99.99,,2013-04-23 18:52:00,
2013-04-23 15:02:00,62.0,-99.9,30.14,North,8,12.0,16.0,-999,-99.99,,,-99.99,,2013-04-23 19:02:00,
2013-04-23 15:11:00,63.0,-99.9,30.14,North,9,10.0,12.0,-999,-99.99,,,-99.99,,2013-04-23 19:11:00,
2013-04-23 15:22:00,63.0,-99.9,30.13,NNE,16,11.0,14.0,-999,-99.99,,,-99.99,,2013-04-23 19:22:00,
2013-04-23 15:33:00,63.0,-99.9,30.13,North,360,12.0,15.0,-999,-99.99,,,-99.99,,2013-04-23 19:33:00,
2013-04-23 15:42:00,63.0,-99.9,30.13,North,11,11.0,15.0,-999,-99.99,,,-99.99,,2013-04-23 19:42:00,
2013-04-23 15:52:00,63.0,-99.9,30.12,NNE,29,13.0,15.0,-999,-99.99,,,-99.99,,2013-04-23 19:52:00,
2013-04-23 16:02:00,63.0,-99.9,30.12,NE,38,12.0,13.0,-999,-99.99,,,-99.99,,2013-04-23 20:02:00,
2013-04-23 16:11:00,62.0,-99.9,30.11,ENE,64,10.0,11.0,-999,-99.99,,,-99.99,,2013-04-23 20:11:00,
2013-04-23 16:22:00,62.0,-99.9,30.12,ENE,63,8.0,10.0,-999,-99.99,,,-99.99,,2013-04-23 20:22:00,
2013-04-23 16:32:00,63.0,-99.9,30.12,NE,45,9.0,10.0,-999,-99.99,,,-99.99,,2013-04-23 20:32:00,
2013-04-23 16:42:00,64.0,-99.9,30.12,NE,42,9.0,11.0,-999,-99.99,,,-99.99,,2013-04-23 20:42:00,
2013-04-23 16:52:00,63.0,-99.9,30.12,NE,37,7.0,18.0,-999,-99.99,,,-99.99,,2013-04-23 20:52:00,
2013-04-23 17:02:00,61.0,-99.9,30.12,East,79,9.0,10.0,-999,-99.99,,,-99.99,,2013-04-23 21:02:00,
2013-04-23 17:12:00,61.0,-99.9,30.11,ENE,76,10.0,11.0,-999,-99.99,,,-99.99,,2013-04-23 21:12:00,
2013-04-23 17:22:00,62.0,-99.9,30.11,East,88,9.0,16.0,-999,-99.99,,,-99.99,,2013-04-23 21:22:00,
2013-04-23 17:33:00,61.0,-99.9,30.11,East,87,11.0,12.0,-999,-99.99,,,-99.99,,2013-04-23 21:33:00,
2013-04-23 17:43:00,61.0,-99.9,30.11,East,100,9.0,10.0,-999,-99.99,,,-99.99,,2013-04-23 21:43:00,
2013-04-23 17:53:00,61.0,-99.9,30.11,East,99,9.0,10.0,-999,-99.99,,,-99.99,,2013-04-23 21:53:00,
2013-04-23 18:03:00,61.0,-99.9,30.11,ESE,104,9.0,10.0,-999,-99.99,,,-99.99,,2013-04-23 22:03:00,
2013-04-23 18:12:00,61.0,-99.9,30.11,ESE,106,10.0,10.0,-999,-99.99,,,-99.99,,2013-04-23 22:12:00,
2013-04-23 18:23:00,62.0,-99.9,30.11,ESE,115,8.0,9.0,-999,-99.99,,,-99.99,,2013-04-23 22:23:00,
2013-04-23 18:33:00,62.0,-99.9,30.11,ESE,121,8.0,9.0,-999,-99.99,,,-99.99,,2013-04-23 22:33:00,
2013-04-23 18:42:00,62.0,-99.9,30.11,SE,125,8.0,9.0,-999,-99.99,,,-99.99,,2013-04-23 22:42:00,
2013-04-23 18:53:00,62.0,-99.9,30.11,SE,125,7.0,7.0,-999,-99.99,,,-99.99,,2013-04-23 22:53:00,
2013-04-23 19:03:00,62.0,-99.9,30.12,ESE,121,7.0,8.0,-999,-99.99,,,-99.99,,2013-04-23 23:03:00,
2013-04-23 19:12:00,62.0,-99.9,30.12,ESE,117,8.0,9.0,-999,-99.99,,,-99.99,,2013-04-23 23:12:00,
2013-04-23 19:22:00,62.0,-99.9,30.12,ESE,120,7.0,8.0,-999,-99.99,,,-99.99,,2013-04-23 23:22:00,
2013-04-23 19:32:00,61.0,-99.9,30.12,ESE,122,8.0,9.0,-999,-99.99,,,-99.99,,2013-04-23 23:32:00,
2013-04-23 19:42:00,61.0,-99.9,30.11,ESE,119,9.0,10.0,-999,-99.99,,,-99.99,,2013-04-23 23:42:00,
2013-04-23 19:52:00,61.0,-99.9,30.12,ESE,123,9.0,10.0,-999,-99.99,,,-99.99,,2013-04-23 23:52:00,
2013-04-23 20:02:00,60.0,-99.9,30.13,SE,133,7.0,8.0,-999,-99.99,,,-99.99,,2013-04-24 00:02:00,
2013-04-23 20:12:00,60.0,-99.9,30.13,SE,131,8.0,9.0,-999,-99.99,,,-99.99,,2013-04-24 00:12:00,
2013-04-23 20:22:00,60.0,-99.9,30.13,SE,130,7.0,7.0,-999,-99.99,,,-99.99,,2013-04-24 00:22:00,
2013-04-23 20:32:00,60.0,-99.9,30.13,SE,129,6.0,8.0,-999,-99.99,,,-99.99,,2013-04-24 00:32:00,
2013-04-23 20:42:00,60.0,-99.9,30.14,SE,128,7.0,7.0,-999,-99.99,,,-99.99,,2013-04-24 00:42:00,
2013-04-23 20:52:00,60.0,-99.9,30.14,SE,132,7.0,8.0,-999,-99.99,,,-99.99,,2013-04-24 00:52:00,
2013-04-23 21:02:00,60.0,-99.9,30.14,SE,132,7.0,8.0,-999,-99.99,,,-99.99,,2013-04-24 01:02:00,
2013-04-23 21:12:00,60.0,-99.9,30.14,SE,134,7.0,8.0,-999,-99.99,,,-99.99,,2013-04-24 01:12:00,
2013-04-23 21:22:00,60.0,-99.9,30.14,SE,135,6.0,7.0,-999,-99.99,,,-99.99,,2013-04-24 01:22:00,
2013-04-23 21:32:00,60.0,-99.9,30.14,SE,132,7.0,9.0,-999,-99.99,,,-99.99,,2013-04-24 01:32:00,
2013-04-23 21:43:00,60.0,-99.9,30.14,SE,126,7.0,8.0,-999,-99.99,,,-99.99,,2013-04-24 01:43:00,
2013-04-23 21:52:00,60.0,-99.9,30.15,ESE,122,7.0,8.0,-999,-99.99,,,-99.99,,2013-04-24 01:52:00,
2013-04-23 22:02:00,60.0,-99.9,30.15,SE,124,7.0,8.0,-999,-99.99,,,-99.99,,2013-04-24 02:02:00,
2013-04-23 22:20:00,60.0,-99.9,30.15,ESE,119,7.0,8.0,-999,-99.99,,,-99.99,,2013-04-24 02:20:00,
2013-04-23 22:30:00,60.0,-99.9,30.16,ESE,118,7.0,8.0,-999,-99.99,,,-99.99,,2013-04-24 02:30:00,
2013-04-23 22:42:00,60.0,-99.9,30.16,ESE,113,8.0,9.0,-999,-99.99,,,-99.99,,2013-04-24 02:42:00,
2013-04-23 22:51:00,60.0,-99.9,30.16,ESE,114,6.0,7.0,-999,-99.99,,,-99.99,,2013-04-24 02:51:00,
2013-04-23 23:02:00,60.0,-99.9,30.16,ESE,123,5.0,6.0,-999,-99.99,,,-99.99,,2013-04-24 03:02:00,
2013-04-23 23:18:00,60.0,-99.9,30.16,SE,126,3.0,5.0,-999,-99.99,,,-99.99,,2013-04-24 03:18:00,
2013-04-23 23:44:00,59.0,-99.9,30.16,SE,131,-999.0,2.0,-999,-99.99,,,-99.99,,2013-04-24 03:44:00,
2013-04-23 23:55:00,59.0,-99.9,30.16,North,-999,-999.0,-999.0,-999,-99.99,,,-99.99,,2013-04-24 03:55:00,